Wind_Speed
18 18 17 17 17 16 16 15 15 15 14 14 14 14 14 14 13 13 13 14 14 14 14 14 13 13 11 11 12 14 16 13 7 3 5 8 12 9 7 8 9 13 14 14 14 9 8 9 12 14 8 5 3 2 3 3 2 3 1 2 2 2 3 4 5 5 3 3 5 5 5 5 5 2 2 2 2 1 3 3 3 1 4 10 18 29 33 30
19 18 18 17 17 16 16 15 15 15 14 14 14 14 14 13 13 13 13 13 13 13 14 14 13 12 10 11 12 14 16 12 7 6 10 12 13 11 10 10 9 13 16 16 16 11 5 5 9 8 5 3 1 3 3 2 2 2 1 1 2 3 3 3 5 5 4 4 6 7 6 5 6 4 1 1 1 1 4 3 4 2 6 15 22 29 31 30
19 19 18 18 17 17 16 16 15 15 14 14 14 14 13 13 13 13 13 12 12 13 13 13 12 11 10 10 12 12 12 7 3 6 12 16 15 13 11 10 10 14 16 16 15 13 9 8 7 4 3 2 1 3 2 1 2 2 2 1 3 3 3 2 5 6 5 7 9 8 6 4 5 4 2 3 4 2 4 1 1 3 8 16 19 23 28 28
20 19 19 18 18 17 16 16 16 15 15 14 14 14 13 13 13 13 13 12 12 13 13 12 11 10 10 10 11 10 8 3 1 4 12 19 17 14 11 10 11 13 15 14 11 10 12 10 8 5 3 3 1 3 3 3 2 2 3 2 4 4 4 3 5 5 6 9 9 7 6 5 4 2 2 6 6 1 3 3 2 4 7 14 16 19 23 23
21 20 19 18 18 17 17 17 16 15 15 14 13 13 12 12 13 13 12 11 12 12 12 11 10 10 10 10 9 7 4 2 3 4 14 20 17 15 12 10 12 13 13 13 10 7 9 9 7 4 2 3 3 2 3 6 4 2 4 4 6 5 4 5 5 5 6 8 8 8 7 6 5 1 2 6 6 3 5 4 4 4 5 8 12 15 19 19
22 21 20 19 18 18 18 17 16 15 15 14 13 12 12 12 13 13 11 11 11 12 11 9 9 10 11 9 5 4 2 1 5 6 17 20 16 15 12 11 13 11 11 12 9 5 6 5 4 3 1 2 5 5 5 6 6 2 3 4 7 6 6 6 6 6 6 8 8 8 7 6 5 2 4 5 4 4 5 5 4 3 4 7 7 7 12 15
23 22 21 20 19 19 18 17 16 15 14 13 13 12 12 12 12 12 11 10 10 11 9 8 8 10 10 6 1 2 2 4 6 9 18 18 16 14 12 13 12 11 12 10 6 4 5 3 4 3 4 5 5 9 5 6 7 3 2 5 7 6 8 8 7 7 7 9 8 7 8 8 7 4 5 5 3 5 7 5 4 3 4 7 6 5 5 7
25 23 22 21 20 19 18 17 16 15 14 13 12 12 12 11 11 11 10 9 10 10 7 6 7 9 10 4 1 3 1 6 7 15 18 18 17 14 14 14 13 13 12 9 6 4 3 4 8 6 5 7 5 7 7 6 6 4 4 7 5 4 7 7 7 7 6 6 6 7 8 8 8 7 6 5 2 7 9 6 4 4 4 5 5 4 4 2
27 25 23 22 21 20 18 17 16 14 13 13 13 12 11 11 10 10 9 9 9 8 6 5 6 8 8 3 1 2 3 5 9 19 19 19 18 16 17 15 14 15 9 9 11 8 4 4 8 8 6 6 2 2 7 7 5 7 6 7 6 4 7 8 7 7 6 3 5 7 7 6 7 6 4 4 5 8 8 7 5 4 3 3 4 2 2 2
30 27 26 24 22 20 19 17 15 13 13 13 13 11 11 10 10 9 8 8 8 7 5 4 5 6 5 2 2 1 4 3 13 22 20 19 19 19 20 16 16 16 9 9 12 10 8 8 9 8 6 3 2 1 7 7 4 7 7 7 8 7 6 8 7 7 5 4 7 9 7 6 6 4 3 4 8 9 9 7 5 5 4 3 2 1 1 2
33 30 27 25 23 21 19 17 15 13 13 13 12 11 10 10 9 8 7 7 6 5 4 3 5 5 3 2 3 3 5 6 18 22 20 20 20 20 20 18 16 16 13 9 12 14 14 16 13 5 2 2 4 4 2 5 6 8 10 8 5 6 5 6 7 6 5 4 8 9 5 5 5 3 4 7 9 10 10 8 6 6 5 4 3 1 0 1
35 32 28 25 23 21 19 17 15 14 13 13 12 11 10 10 8 7 7 6 5 3 3 3 4 4 3 3 3 8 5 10 20 21 21 21 21 19 16 16 17 18 16 9 11 19 19 19 12 5 2 2 4 4 4 3 8 7 9 9 4 5 4 5 6 6 6 4 8 8 5 4 5 5 7 9 9 9 10 9 7 6 5 5 4 3 1 1
38 35 31 27 24 23 20 18 16 14 13 11 11 10 9 9 8 6 6 5 4 3 2 2 2 3 2 0 7 8 6 11 19 22 22 21 19 18 15 16 18 19 19 15 16 22 22 20 13 6 4 4 2 1 2 3 8 6 4 6 5 5 2 7 6 7 6 4 8 7 4 4 5 6 10 10 10 10 9 8 8 7 6 5 5 4 3 2
40 38 34 29 26 23 21 18 16 14 12 11 11 10 9 8 7 5 5 4 2 2 2 1 1 2 2 5 10 7 5 9 18 22 22 21 19 18 18 18 19 21 23 22 23 24 25 22 12 5 3 2 3 1 2 2 6 6 3 3 3 5 4 7 5 8 5 3 6 6 4 5 4 7 10 10 11 11 9 8 8 7 6 5 4 5 4 5
41 40 37 32 27 24 22 20 17 13 12 12 11 10 8 7 6 5 4 2 1 1 1 1 1 1 2 7 11 7 3 8 19 24 24 22 19 15 18 23 23 25 25 24 25 23 23 17 7 4 4 3 2 4 3 3 3 4 3 1 1 3 4 6 5 9 7 2 4 6 3 4 4 8 8 10 12 11 10 8 8 8 7 6 5 5 5 5
42 42 40 35 29 25 23 21 17 14 13 12 11 9 7 6 4 3 2 1 1 1 1 3 1 2 1 5 7 6 2 12 20 26 25 23 21 17 20 23 22 24 24 24 25 22 18 11 4 3 5 4 2 2 3 3 1 3 4 3 3 3 3 3 4 8 8 3 3 4 4 3 3 7 8 10 12 11 10 8 8 9 8 7 5 5 5 4
42 43 42 38 31 26 24 21 18 16 13 12 10 7 6 6 3 1 0 2 2 0 1 1 1 1 3 6 6 5 6 11 18 27 28 24 22 21 18 13 13 17 20 21 22 16 9 5 2 3 3 3 2 2 3 3 3 4 2 3 4 5 5 3 3 6 7 6 6 4 6 6 5 8 9 11 12 10 10 9 9 8 7 7 5 5 5 4
43 44 43 41 34 28 25 22 19 18 14 12 9 7 6 6 3 0 3 5 3 2 1 1 1 1 4 6 3 3 7 11 16 23 27 25 22 24 19 10 7 9 10 10 12 8 3 2 1 3 4 2 1 3 2 7 5 6 6 5 3 4 5 6 5 7 9 8 7 6 6 7 6 9 10 10 11 10 10 9 8 8 7 7 5 5 5 4
44 44 44 43 37 30 25 22 20 18 15 11 8 8 8 5 2 2 4 5 3 0 1 2 4 1 2 5 5 5 8 16 16 15 20 22 21 21 19 12 8 7 5 3 4 3 3 1 2 3 5 4 6 7 9 13 10 10 11 8 8 6 4 7 5 8 13 9 6 9 7 7 9 10 10 9 9 9 8 7 6 7 7 6 6 6 6 6
43 44 44 43 40 32 26 23 20 18 16 11 7 6 4 1 1 0 2 3 4 6 5 5 7 5 6 6 5 5 5 12 13 12 19 20 15 12 9 7 5 4 3 3 4 3 3 3 4 6 10 10 10 9 11 16 13 8 11 9 10 8 6 9 6 7 13 9 7 10 7 9 12 11 11 10 9 8 8 8 7 8 7 7 7 7 7 8
43 44 43 43 41 35 27 23 20 18 15 11 8 4 0 0 1 2 2 4 8 10 9 9 11 10 12 11 10 6 3 6 9 11 21 20 10 6 4 4 3 3 4 4 4 3 1 3 8 10 13 13 14 13 10 11 6 6 11 9 8 8 8 9 8 8 11 8 6 9 9 10 12 11 11 10 10 10 11 12 10 10 10 9 9 9 9 7
42 42 43 43 41 37 30 23 20 18 14 11 7 2 3 4 1 3 3 4 8 10 12 12 10 12 15 17 22 14 4 6 9 8 16 15 8 6 4 4 4 4 4 2 3 5 3 6 14 14 12 13 14 15 10 5 1 3 7 8 7 6 4 5 5 7 9 5 5 9 11 10 10 11 11 12 12 11 12 14 13 12 11 9 9 9 8 7
41 42 43 42 41 39 31 23 20 16 12 10 6 4 6 9 9 10 5 3 7 6 9 9 8 9 12 14 18 13 5 6 8 7 12 12 6 6 5 4 6 5 3 3 3 3 4 8 15 13 11 13 12 10 5 1 3 1 6 7 6 7 5 3 5 8 9 4 5 9 7 5 6 6 7 10 10 9 11 13 12 12 11 11 11 8 8 8
40 41 42 42 42 38 30 24 15 9 12 12 10 8 13 20 20 16 5 1 6 5 7 10 8 6 11 12 9 8 7 7 7 7 12 12 5 4 5 5 5 4 5 7 8 7 10 14 13 10 9 9 6 4 1 2 3 2 4 7 7 11 9 7 5 7 7 2 6 9 5 1 6 6 7 7 5 6 10 11 9 10 10 10 9 8 8 9
40 40 41 42 42 38 31 20 6 7 16 14 11 14 21 26 23 11 1 1 5 5 4 8 6 7 13 11 8 6 6 7 7 7 11 12 7 4 3 3 3 5 9 9 8 6 11 16 13 10 10 5 2 4 3 4 1 4 1 7 12 16 10 6 9 9 6 2 6 9 6 2 4 6 9 5 4 7 8 10 11 10 8 8 8 8 8 8
39 39 41 41 41 40 28 9 2 10 15 10 9 19 21 22 20 7 2 4 4 4 3 5 5 8 11 7 5 3 4 5 8 10 13 15 12 7 3 2 2 7 8 6 4 3 9 14 10 8 8 3 1 3 3 5 3 3 3 6 10 14 10 9 12 10 6 4 8 9 6 4 4 5 9 7 8 10 8 9 11 9 9 8 9 9 9 8
39 39 40 40 41 37 19 5 10 12 7 7 13 18 17 19 17 5 3 4 5 4 3 3 3 7 9 7 7 6 3 5 6 9 12 16 12 6 5 5 2 6 4 0 3 4 6 9 9 5 2 0 0 3 4 6 7 3 6 4 7 10 10 11 11 7 4 3 5 5 3 5 5 5 8 9 11 10 8 9 9 9 10 10 10 10 10 10
38 38 39 39 39 31 15 11 12 7 5 11 15 14 16 19 12 1 4 2 4 2 3 2 2 6 5 5 9 6 5 4 5 6 11 18 14 5 6 8 4 5 3 1 5 7 2 5 9 3 2 1 3 5 6 5 6 6 7 4 5 7 8 11 10 6 3 4 5 5 2 5 3 3 5 9 10 10 11 12 10 10 11 11 11 11 11 11
37 37 37 39 38 26 13 11 9 6 8 12 13 13 16 14 7 4 4 1 3 1 1 1 2 4 2 3 8 8 6 4 4 5 8 15 13 4 5 8 5 7 6 4 6 9 5 6 8 2 2 4 5 6 6 4 5 6 5 2 2 1 2 6 7 5 3 3 6 9 6 4 2 2 5 7 9 11 12 11 10 10 11 11 11 11 10 9
37 36 36 38 34 20 9 12 13 7 7 10 11 13 12 8 4 4 1 3 3 2 0 1 2 4 5 5 6 8 7 3 1 2 5 7 7 2 1 4 4 4 5 3 6 10 9 7 6 3 3 6 6 5 5 6 5 3 1 2 5 4 3 3 2 4 3 2 6 12 10 6 2 4 6 8 11 14 12 8 9 9 9 10 9 9 9 7
37 35 35 35 30 16 6 9 7 0 6 11 11 9 7 4 4 3 2 3 3 2 1 2 3 5 10 10 7 6 7 3 1 5 4 4 4 0 2 1 2 1 3 5 6 7 8 6 4 4 5 5 2 2 3 1 2 3 4 4 4 4 5 5 4 3 3 5 6 10 13 9 5 5 9 11 9 11 13 10 11 11 10 10 9 8 8 7
37 35 34 32 26 15 11 8 5 3 5 11 8 4 5 3 1 2 3 4 2 2 1 3 4 5 10 10 6 5 5 3 3 7 7 5 5 3 3 4 4 1 3 5 5 5 5 6 5 4 4 4 3 1 5 6 5 5 4 5 4 2 3 2 3 1 3 7 5 8 12 6 4 5 10 13 8 9 13 11 12 13 11 11 9 8 7 7
37 36 34 28 21 18 16 11 10 10 8 9 4 4 5 3 2 5 5 3 1 3 2 3 5 5 10 8 5 6 5 4 5 5 7 6 5 5 6 6 7 5 3 4 2 3 4 7 5 2 3 3 6 4 2 3 3 3 1 3 4 1 1 1 4 1 1 6 4 5 7 1 4 4 6 13 9 9 11 9 11 13 12 12 9 8 7 7
38 34 32 28 23 19 15 11 10 10 9 4 3 5 4 2 4 5 4 3 4 6 4 2 3 4 9 8 6 6 4 4 6 6 5 5 4 4 5 6 7 6 2 1 1 2 2 6 4 4 4 3 5 6 7 4 2 1 3 5 4 3 3 3 3 2 3 5 4 3 3 1 2 4 4 8 8 8 9 8 8 10 9 9 7 7 8 7
37 32 30 26 19 11 6 9 9 7 3 2 5 4 3 4 3 1 2 2 3 5 7 5 4 6 6 6 5 6 5 3 6 6 5 6 5 5 5 5 7 7 4 2 2 3 3 5 8 7 6 7 6 5 5 6 3 3 1 5 1 4 5 2 3 4 4 1 4 3 1 1 3 4 4 7 9 8 9 8 8 8 7 7 6 7 8 8
37 33 24 16 12 5 2 9 14 12 6 5 4 2 4 4 3 1 1 3 4 5 10 10 4 7 4 4 5 6 6 4 6 5 3 5 5 6 6 5 7 9 7 5 3 2 1 5 8 5 6 8 8 5 4 5 3 1 2 2 4 5 7 3 2 1 3 3 2 1 2 1 1 4 5 7 10 7 8 8 8 8 7 8 7 6 8 7
37 29 14 12 12 5 5 14 20 14 5 5 4 4 4 3 3 3 3 6 7 6 7 7 2 5 5 5 5 7 5 3 5 5 3 4 4 6 7 5 7 11 10 8 4 4 4 6 7 3 6 6 5 6 4 3 6 3 1 4 3 1 4 3 1 3 5 3 2 0 4 3 2 1 2 5 9 7 7 8 8 7 7 8 6 7 7 7
29 18 10 11 7 7 12 19 21 11 5 4 2 3 3 3 3 4 6 8 9 7 5 4 4 5 5 5 5 7 7 4 5 5 3 4 4 7 9 6 7 12 13 11 6 3 4 4 8 2 5 3 1 4 2 4 2 4 3 4 2 2 1 2 1 0 1 1 0 3 1 2 3 3 4 6 9 8 7 8 9 9 9 7 6 7 7 6
14 7 6 3 8 15 18 22 16 6 5 3 3 3 3 4 5 7 8 8 7 6 5 6 5 3 4 5 5 5 6 6 7 5 4 4 4 7 10 7 6 11 12 12 7 3 2 3 5 5 3 3 3 2 3 5 5 3 3 2 2 3 3 1 0 2 2 1 1 2 2 2 3 5 8 10 10 11 9 8 9 10 9 6 6 7 7 6
3 2 4 4 15 20 21 19 9 5 3 3 4 3 4 5 6 9 9 8 6 4 5 7 5 2 2 4 3 4 5 7 8 6 5 6 5 6 8 8 6 8 10 12 9 4 1 3 2 6 3 4 1 1 5 5 0 3 4 3 2 1 1 1 1 1 3 2 3 3 2 4 5 4 7 10 10 10 11 9 8 8 7 6 6 7 7 6
2 3 1 10 22 25 20 10 3 2 2 2 3 3 5 5 7 10 11 10 7 5 6 8 6 3 3 2 3 3 3 5 7 7 4 6 6 4 7 11 9 5 7 9 7 5 3 2 3 2 4 2 4 5 6 7 6 6 4 3 3 2 2 3 2 4 1 4 4 4 2 5 5 2 5 8 8 8 9 9 7 6 7 7 5 7 7 7
1 2 1 11 24 24 13 3 1 2 2 3 3 4 5 5 7 10 11 9 7 6 7 7 5 4 3 2 4 4 3 4 7 7 5 7 9 7 7 11 11 6 6 7 6 5 4 3 4 1 1 2 7 6 1 4 4 5 4 4 4 4 4 5 2 3 1 2 1 4 2 5 5 3 4 8 9 8 8 8 7 5 8 8 6 6 6 7
1 4 6 9 19 14 6 1 2 1 3 3 4 6 7 6 7 8 8 8 7 5 5 5 3 3 2 2 4 4 2 3 7 9 7 6 9 9 7 10 10 4 4 5 5 2 1 3 3 2 4 3 6 7 5 4 5 5 2 1 2 3 4 5 4 3 2 1 1 4 1 4 5 4 2 6 8 8 7 8 9 7 6 7 7 7 6 6
2 5 6 7 17 12 1 1 3 2 4 5 6 9 9 7 8 9 10 9 6 4 5 5 3 2 2 3 4 5 2 1 6 8 5 3 4 1 0 6 10 5 2 4 5 2 1 1 3 3 4 5 6 7 7 6 5 2 2 3 2 4 5 4 1 3 3 1 3 5 2 5 5 2 3 6 8 8 7 7 9 8 7 7 7 6 6 6
3 3 4 4 11 10 3 3 3 2 4 5 7 10 9 7 7 10 12 10 8 6 5 5 4 3 4 5 6 6 3 3 4 4 3 3 1 5 6 4 7 6 3 6 7 4 3 2 3 5 3 2 1 1 2 2 2 2 3 4 3 5 6 3 1 4 1 3 2 5 4 5 4 2 5 6 9 9 7 7 7 7 7 6 6 5 5 5
3 0 3 4 1 3 3 2 1 2 4 5 6 8 8 5 5 7 9 8 7 6 5 5 4 3 4 5 6 7 2 2 4 2 2 2 1 2 2 7 9 6 6 10 8 5 4 3 4 6 6 5 5 5 5 2 0 3 5 7 4 3 6 5 3 2 3 2 1 3 7 4 4 5 5 5 8 9 8 8 7 6 7 6 6 6 5 5
1 1 2 4 3 3 3 3 4 3 5 5 4 6 8 8 7 7 6 5 5 5 4 5 3 1 4 5 5 5 4 3 3 1 1 2 2 1 3 7 7 5 7 6 4 5 5 2 3 6 5 5 7 6 3 1 1 1 4 7 6 3 4 5 2 4 4 4 3 6 7 9 8 7 7 7 8 8 8 9 8 8 8 7 6 6 6 7
1 1 2 3 2 2 3 4 5 6 9 7 4 6 7 9 8 6 6 7 7 6 4 5 6 4 6 6 3 3 4 6 6 2 3 2 3 2 3 5 3 3 6 4 3 4 6 2 3 4 1 1 1 0 3 3 1 1 2 5 7 6 4 2 3 5 6 4 5 6 8 9 8 6 8 9 8 9 9 9 9 8 7 6 6 7 8 8
1 2 3 3 2 2 3 7 7 7 9 7 4 5 6 8 8 7 6 7 9 6 3 5 9 8 9 8 4 3 2 2 4 3 2 2 3 3 3 3 2 1 5 4 3 3 5 1 3 3 3 4 5 5 6 6 5 5 5 6 7 7 7 4 4 6 5 3 5 8 8 5 4 5 9 9 7 8 8 7 7 7 7 7 7 8 8 8
2 2 3 3 3 3 4 5 5 5 6 5 3 4 6 7 8 8 7 5 7 8 6 7 10 9 10 10 7 4 4 2 4 6 5 4 2 3 3 2 1 2 4 4 2 3 4 1 3 4 5 4 5 5 7 7 6 6 8 8 4 4 5 3 1 2 4 6 8 11 9 2 3 4 7 6 5 7 7 6 7 7 7 8 8 8 8 8
5 6 5 3 3 4 4 4 5 5 5 4 3 4 7 7 7 9 7 4 4 6 8 10 13 9 6 7 7 7 7 4 6 7 7 9 5 4 3 3 4 3 3 3 2 3 4 1 1 5 5 4 4 4 6 6 7 7 8 7 4 5 4 2 2 1 5 9 9 10 8 4 6 3 5 5 6 8 8 8 7 6 7 8 9 9 8 9
10 7 5 2 2 3 4 4 5 4 3 3 7 9 9 9 9 8 5 4 4 6 9 11 11 7 5 7 8 8 9 6 5 6 4 6 7 7 6 5 7 6 3 3 2 1 3 3 1 4 3 4 4 2 5 6 7 5 5 4 1 4 5 3 4 4 5 9 8 6 6 6 5 5 6 6 7 8 8 7 6 6 7 8 9 9 9 9
Wind_Direction
344 341 336 331 329 326 323 320 318 316 316 319 319 318 319 322 325 328 327 326 328 337 348 348 347 347 349 351 343 333 330 329 321 266 236 219 199 190 186 191 191 186 185 201 210 204 206 208 227 226 208 204 188 184 188 156 109 84 72 100 119 178 181 182 177 172 135 148 175 183 197 152 130 158 290 328 15 13 37 11 334 332 137 138 145 149 153 150
344 341 336 333 329 327 324 321 319 316 316 317 317 317 318 322 325 327 326 327 332 343 351 346 346 348 350 353 341 331 331 327 323 279 231 197 183 189 186 188 191 188 188 201 212 209 212 220 229 220 167 181 205 157 173 167 127 136 167 100 176 193 174 180 152 144 137 147 160 170 187 156 142 158 203 83 68 63 82 23 350 48 114 132 145 152 156 152
345 341 337 334 331 328 325 322 319 316 315 315 315 316 319 323 325 324 326 330 337 346 349 345 345 348 353 350 336 329 331 332 320 270 221 185 178 187 186 198 200 197 201 205 209 209 222 241 250 240 163 213 227 155 177 191 158 173 142 102 237 179 134 174 143 147 147 136 143 154 167 149 147 151 148 129 117 111 126 143 18 91 127 139 149 154 158 156
344 340 337 335 332 329 326 322 320 316 314 313 313 316 320 323 322 322 329 335 340 346 347 347 344 347 354 342 329 323 331 352 263 246 198 185 183 182 188 207 206 209 217 215 216 224 239 259 278 273 196 217 207 147 189 203 180 173 158 177 217 151 126 189 159 142 132 131 139 142 141 146 162 149 143 139 123 153 210 220 196 148 142 144 152 155 160 162
345 341 338 336 333 330 327 323 319 315 314 312 311 315 321 322 319 322 331 338 340 345 347 348 344 348 349 335 324 314 346 73 265 229 185 185 185 180 187 208 214 220 219 221 237 256 266 270 278 283 205 195 151 130 220 200 173 184 205 174 172 153 137 179 160 140 134 126 130 137 144 150 153 158 191 158 146 196 207 214 207 169 138 134 147 155 161 166
347 343 339 336 333 330 327 324 320 316 314 312 312 316 321 317 316 322 331 339 340 342 348 350 347 350 346 338 325 314 42 144 283 202 180 183 184 182 188 211 218 219 216 225 241 260 278 259 253 286 254 218 168 194 238 194 170 177 227 168 165 164 138 159 157 152 147 130 140 152 143 134 142 180 204 187 191 197 182 183 186 154 112 107 107 136 161 171
347 344 340 337 334 331 328 326 321 317 315 314 315 315 316 314 316 322 331 340 339 339 347 352 349 351 350 355 341 2 85 252 263 178 176 178 181 185 194 212 213 213 216 225 235 240 265 262 255 252 241 259 196 199 217 181 178 172 202 180 178 162 140 156 154 157 161 147 158 155 132 144 167 173 182 211 231 172 166 166 152 101 85 98 88 88 128 169
348 345 341 337 335 333 329 325 321 318 317 317 315 313 312 313 314 321 333 338 337 338 346 354 355 354 354 9 350 5 124 251 223 178 175 173 179 190 199 207 209 213 214 222 231 229 257 272 259 255 240 241 204 192 184 160 186 209 202 176 173 155 145 149 141 153 168 156 157 148 148 170 181 161 166 205 191 149 150 134 118 93 73 85 90 93 88 100
350 346 343 339 336 334 329 325 323 320 318 314 311 311 311 310 313 323 333 335 336 336 341 357 359 356 358 359 24 9 269 266 195 179 174 173 181 191 198 203 209 211 213 232 236 233 240 241 241 248 247 225 178 153 159 154 200 209 187 158 156 158 146 135 136 161 169 170 157 149 165 189 183 154 147 183 149 136 132 118 119 113 102 95 83 87 93 90
352 348 345 342 338 335 330 328 326 324 320 313 308 310 309 307 315 324 328 334 338 333 337 2 357 3 12 4 62 80 277 248 176 177 175 177 183 192 200 205 211 210 215 241 237 230 229 236 246 252 249 238 6 61 161 178 202 175 152 137 151 157 143 134 147 175 172 182 175 161 178 195 185 152 126 173 147 129 125 126 140 138 145 150 112 89 76 70
355 350 347 343 339 336 333 331 329 326 320 313 310 311 310 310 319 326 327 335 337 333 339 356 2 15 36 71 105 203 259 193 176 176 177 182 187 196 203 206 213 212 215 239 245 239 239 248 261 276 250 283 339 333 193 174 147 141 127 104 131 136 115 131 149 178 178 190 185 165 158 171 179 174 167 169 150 134 134 140 153 158 168 166 163 204 88 28
357 353 348 345 341 339 337 333 329 324 318 314 314 314 314 314 322 327 328 338 334 323 338 351 18 28 49 87 200 222 222 189 182 178 182 188 194 203 208 212 218 218 217 227 252 251 251 256 272 318 293 312 349 343 340 58 110 125 117 106 120 105 107 162 157 181 190 187 179 146 97 149 188 196 177 161 150 138 138 148 159 166 173 174 178 191 180 279
359 356 352 349 346 343 339 333 327 323 321 317 314 314 315 318 325 328 332 345 337 307 320 4 29 25 56 204 244 225 203 202 189 182 188 193 201 211 217 225 230 232 229 227 251 263 266 272 286 301 281 312 321 185 332 33 113 127 105 111 129 99 153 201 172 176 187 179 172 136 97 205 217 182 170 155 147 140 141 157 163 168 175 181 185 179 193 201
360 358 355 352 348 344 339 333 326 326 326 321 317 317 317 321 327 330 334 337 338 314 295 345 10 74 93 261 266 263 258 225 194 187 191 192 201 217 227 234 237 241 239 236 249 263 269 277 287 286 266 261 268 302 9 47 123 134 83 40 119 121 205 217 185 164 171 195 168 113 104 213 215 174 169 154 150 147 155 168 163 171 176 176 186 179 195 210
1 360 358 355 350 345 342 335 329 327 325 322 320 319 319 324 330 336 345 339 313 290 303 350 293 116 29 279 273 291 291 205 199 199 196 191 197 217 232 235 238 241 243 245 250 259 267 277 296 294 282 251 274 343 356 75 99 134 119 345 125 125 203 219 209 173 167 206 158 102 105 210 208 187 173 154 156 154 162 173 164 171 177 175 187 187 198 219
1 0 359 357 351 347 343 337 331 325 325 326 323 323 323 328 335 336 347 72 160 240 66 49 40 123 44 287 289 303 207 178 200 207 202 198 199 213 229 233 239 244 248 251 254 261 268 281 302 256 266 284 302 347 345 37 103 199 163 174 178 144 182 211 230 195 167 153 179 119 134 191 214 197 178 162 164 161 165 170 166 171 178 178 188 198 196 213
1 1 -0 358 354 349 344 338 331 324 327 328 324 327 325 320 329 337 128 136 137 173 115 61 357 55 266 280 303 283 213 184 194 200 204 206 208 218 227 231 237 243 248 251 256 263 265 275 289 272 288 303 309 75 1 314 211 212 169 130 186 181 167 176 212 204 163 156 194 153 153 190 190 180 181 177 170 164 171 171 170 175 180 182 186 201 198 208
360 360 360 358 355 350 345 340 332 327 328 330 330 327 310 297 290 165 135 137 117 53 358 315 0 38 262 262 290 254 209 198 190 191 201 209 213 219 224 235 252 250 253 255 256 251 229 245 299 309 303 277 234 114 180 250 209 181 180 137 176 190 176 197 194 178 164 165 189 170 180 201 177 173 183 186 174 167 177 174 174 181 183 186 189 199 202 214
358 359 359 358 355 351 346 341 335 330 328 332 334 318 300 288 272 141 130 128 115 122 261 204 177 169 253 245 272 285 220 201 196 196 205 213 216 219 226 240 265 270 256 261 274 245 185 243 335 303 276 249 221 187 196 240 233 183 179 157 162 180 201 216 204 169 162 155 188 187 189 184 172 183 186 186 179 170 178 176 175 184 187 192 194 203 203 211
356 356 356 356 355 353 348 342 338 332 330 336 343 326 311 349 14 36 145 167 204 226 233 196 188 239 281 276 280 289 241 203 199 208 215 221 217 214 228 233 257 279 241 238 274 265 175 215 251 236 244 253 246 226 212 237 243 174 161 157 159 173 205 216 211 182 162 149 195 196 184 179 178 188 185 178 175 170 176 180 183 183 186 195 197 204 204 209
353 353 354 354 354 352 347 341 336 333 331 333 342 343 280 144 35 354 310 241 230 226 238 224 202 231 257 266 273 286 316 225 208 206 214 220 205 183 228 210 210 276 254 254 278 291 245 230 249 237 236 248 254 257 239 231 245 127 146 156 155 178 208 212 200 179 166 157 193 186 175 187 186 187 186 173 172 180 182 183 188 185 183 192 195 200 203 206
351 351 351 352 351 350 346 340 336 333 327 319 321 310 245 253 211 19 353 279 264 222 223 235 220 241 253 259 265 267 302 240 220 215 212 208 184 172 216 203 199 246 262 290 323 313 307 256 254 250 242 243 246 253 244 221 282 90 134 140 158 194 209 229 209 170 168 169 186 177 176 193 191 183 185 178 178 186 187 185 185 181 178 187 191 190 193 194
349 348 348 349 349 348 344 338 335 334 333 320 294 247 287 308 310 326 333 263 283 235 207 224 218 243 252 257 259 242 224 224 208 221 205 185 176 178 182 196 206 233 257 245 239 258 268 254 255 257 248 241 242 246 238 225 293 230 133 130 173 200 174 216 226 178 177 176 162 166 164 186 183 174 190 192 187 185 189 189 183 180 179 185 188 181 183 187
346 345 346 345 345 347 342 335 333 343 345 321 281 282 326 333 322 315 330 189 283 267 212 210 200 223 239 245 248 207 200 208 188 209 196 174 166 163 174 193 196 231 242 228 224 227 247 256 261 272 263 240 231 246 188 139 270 286 139 139 173 197 193 196 185 159 169 147 136 136 96 156 177 169 194 205 203 191 187 185 182 188 186 180 180 178 183 187
344 343 343 343 343 344 339 332 332 1 342 306 283 324 340 340 329 312 13 31 286 284 232 203 188 229 237 232 234 214 189 192 189 193 187 179 167 143 198 199 163 231 241 238 241 238 253 260 263 267 260 238 202 246 210 155 280 329 190 169 177 190 197 172 137 134 152 170 172 148 108 220 211 182 191 189 189 198 189 182 185 190 187 174 174 183 189 190
342 341 341 341 340 341 340 338 307 338 330 291 305 336 334 341 339 305 133 36 293 267 217 173 160 212 222 202 190 174 147 210 210 180 177 188 180 152 189 222 187 232 236 235 247 236 249 258 257 247 241 232 24 276 234 137 91 332 238 189 175 180 180 160 144 144 165 192 194 175 134 171 214 201 196 180 180 197 194 188 190 185 182 181 180 185 189 192
339 339 339 338 338 341 341 302 305 322 312 298 333 335 327 343 343 285 130 33 287 241 176 179 164 180 191 180 154 127 149 224 207 179 178 189 186 148 181 223 218 230 232 172 258 242 237 264 272 261 257 290 65 270 243 133 119 250 242 182 148 157 159 160 157 163 185 154 173 194 109 138 194 210 192 176 177 195 201 197 199 191 186 188 185 185 189 192
337 337 337 335 336 337 320 284 303 310 284 317 338 339 336 348 350 265 106 35 260 213 150 213 191 166 179 172 155 165 214 176 162 204 182 181 185 140 190 225 209 231 265 104 256 266 238 279 276 267 40 300 206 230 246 145 140 228 233 184 149 155 155 154 161 181 183 119 155 209 122 122 214 226 165 172 178 194 207 202 202 198 191 188 187 188 191 193
334 335 335 332 332 334 320 282 277 281 309 334 347 344 345 356 15 76 81 226 245 243 162 151 146 169 184 152 167 204 225 137 161 216 160 177 193 146 189 220 210 252 271 186 235 276 267 252 254 207 100 236 221 229 233 154 158 224 215 165 80 126 168 142 154 165 123 118 182 201 169 119 229 216 151 173 191 200 206 203 200 199 192 190 188 188 190 190
332 332 333 330 327 331 326 283 268 279 335 353 350 342 352 13 49 68 74 238 254 279 140 132 170 167 154 162 191 215 214 187 188 162 127 179 198 127 195 198 173 242 281 241 245 267 266 264 264 246 207 209 209 230 219 172 177 209 137 54 26 11 -0 39 96 108 100 263 223 194 173 130 161 218 185 192 201 194 188 189 199 199 194 192 189 187 186 181
330 330 330 326 320 315 295 281 271 180 14 352 343 347 10 36 63 103 192 263 279 258 172 178 191 156 160 176 195 207 206 220 150 142 148 183 177 65 327 188 161 223 307 292 272 272 280 287 277 244 211 188 167 294 282 271 164 114 83 68 34 354 6 19 357 43 118 259 258 186 169 146 161 220 212 209 208 183 177 180 187 189 191 191 187 185 184 177
328 328 326 322 313 286 247 261 254 177 7 350 347 18 57 63 39 202 241 323 334 224 192 195 210 174 171 180 193 196 189 197 185 164 162 166 171 191 213 192 178 191 279 263 274 309 302 275 264 257 224 173 123 328 314 341 23 67 69 70 64 336 354 18 275 259 184 254 269 162 156 161 213 230 207 203 200 178 181 181 176 178 182 184 183 179 178 173
328 326 323 319 307 278 262 269 253 238 296 337 6 53 75 103 227 228 242 312 305 295 337 205 221 178 164 174 201 200 186 188 200 185 171 164 170 203 230 217 174 158 225 240 281 331 307 288 280 261 261 186 137 152 260 318 22 69 105 110 100 134 89 238 250 259 223 271 299 124 126 137 282 289 209 191 183 175 176 172 168 172 174 174 176 170 169 172
328 327 323 316 304 289 274 258 235 238 273 318 57 70 95 177 239 236 238 263 267 285 309 232 220 171 168 184 195 184 173 194 193 178 169 158 158 209 238 236 198 170 183 276 291 197 232 300 274 196 227 206 161 178 181 156 115 187 187 134 126 163 156 192 210 159 214 262 322 29 72 106 226 291 258 173 151 150 155 158 161 162 164 164 161 158 165 174
328 326 323 311 300 298 265 222 200 189 195 78 68 85 158 217 244 231 238 277 279 283 312 303 223 179 187 205 206 187 164 183 194 170 163 172 179 201 204 218 213 184 153 187 246 213 195 253 246 219 194 174 179 201 167 115 86 265 174 85 102 192 149 155 187 177 187 212 349 2 29 235 204 314 339 117 125 139 143 142 150 152 155 156 155 159 164 172
330 329 325 300 281 293 191 178 166 161 151 91 83 158 209 229 232 207 255 319 316 312 325 316 223 171 201 217 221 217 182 167 184 174 184 194 191 204 201 202 203 187 170 178 223 250 223 272 261 216 174 182 187 183 153 127 146 257 60 105 244 185 133 118 259 290 76 90 340 6 111 305 338 352 -0 103 123 134 134 140 156 157 158 161 162 165 166 168
332 331 321 280 274 265 170 156 151 150 123 97 133 209 233 237 241 264 308 322 313 306 324 322 231 186 201 193 215 219 186 157 190 191 202 206 213 217 208 210 203 193 181 176 211 236 213 277 290 176 167 224 205 161 170 159 143 126 156 211 247 64 100 100 103 354 33 90 275 14 144 176 150 357 331 116 127 136 143 151 158 159 165 172 173 174 171 164
328 326 304 280 260 160 151 150 146 136 86 96 187 243 238 238 266 294 304 306 306 309 319 308 256 218 187 185 222 203 163 157 204 206 196 198 235 219 198 204 216 206 191 177 196 244 188 248 297 256 159 231 292 138 219 306 92 134 183 188 102 67 326 356 99 172 33 124 301 10 8 190 162 177 186 159 151 156 161 157 157 169 178 178 175 173 167 153
324 321 316 285 148 142 147 147 139 102 69 122 222 245 241 258 274 278 282 284 287 293 288 272 253 229 177 187 218 200 171 173 187 204 203 191 235 228 198 195 219 214 195 175 183 243 166 155 287 290 146 137 7 79 194 291 334 39 47 21 55 141 169 213 173 156 136 164 135 53 329 272 222 205 186 181 175 165 165 167 170 177 178 172 167 163 158 149
338 326 318 151 144 141 142 140 117 58 98 173 214 227 263 276 276 269 266 269 270 257 260 268 269 282 242 212 215 210 190 177 178 196 208 191 212 239 208 199 226 218 185 174 181 211 227 137 234 292 356 91 15 226 177 193 128 58 50 22 2 22 112 137 6 80 121 125 132 138 250 262 251 218 183 186 185 173 170 174 181 181 163 158 157 147 142 139
340 347 300 155 150 143 133 123 69 90 151 242 230 226 264 265 273 276 269 267 264 241 242 259 258 236 220 223 242 226 187 182 191 196 205 198 199 231 214 203 218 208 161 175 186 176 195 164 156 295 -0 44 251 246 195 179 160 133 134 167 157 97 84 100 345 317 87 118 139 145 193 259 261 216 183 186 183 180 173 166 175 171 148 145 147 140 137 133
328 357 243 157 154 145 124 102 259 162 192 253 225 238 267 257 262 274 274 274 267 248 244 249 251 245 214 197 230 226 184 192 206 201 205 203 200 217 221 202 202 184 142 166 190 178 169 117 104 173 255 227 263 280 207 166 147 111 125 180 165 128 109 121 193 261 35 52 72 110 141 255 266 250 202 186 174 171 166 151 145 143 140 141 141 140 135 129
55 298 271 194 173 157 94 35 259 246 236 252 253 254 259 258 264 271 277 277 268 265 266 257 261 274 239 206 224 227 201 199 212 210 206 209 212 219 213 185 177 162 123 150 173 184 89 83 83 315 299 298 306 329 15 60 66 60 20 286 127 137 140 138 168 175 112 52 74 79 60 260 269 277 205 160 151 146 144 137 129 127 135 140 141 142 137 129
309 274 281 222 197 195 96 201 229 256 251 266 274 261 252 249 256 260 265 268 261 269 281 271 267 266 264 282 266 236 207 189 227 217 195 209 236 250 107 162 151 129 121 164 163 146 57 77 91 66 352 336 344 351 354 3 30 49 291 324 46 99 98 93 107 78 58 236 137 113 203 249 261 275 94 111 119 119 126 133 133 139 148 150 149 148 142 132
310 242 283 268 208 205 203 190 202 240 268 284 286 278 270 253 245 246 252 258 256 256 264 259 270 293 301 310 290 260 214 169 232 232 167 165 89 44 30 57 98 99 129 145 134 118 117 123 106 113 142 234 261 310 295 309 332 313 306 330 17 77 67 44 57 71 52 252 112 123 194 251 266 182 111 111 119 121 133 144 144 148 150 154 157 156 153 148
352 195 289 318 252 226 265 288 345 306 285 302 298 286 286 292 290 276 268 264 255 257 258 252 273 317 321 323 308 292 291 198 234 258 106 140 107 85 75 68 69 78 111 124 118 95 91 108 117 129 154 181 191 217 229 187 320 309 322 329 329 58 75 84 90 97 189 176 36 205 181 173 211 185 140 136 138 135 146 151 146 146 152 164 170 170 175 178
8 12 337 354 339 313 324 342 4 341 296 304 294 281 299 314 313 304 299 291 285 297 295 269 280 321 292 310 317 301 325 335 294 292 87 65 68 146 120 84 78 88 96 96 93 90 88 91 143 146 164 188 187 210 251 57 113 265 322 327 319 349 69 91 141 217 172 99 321 253 168 154 197 193 161 168 163 148 152 155 155 163 169 176 179 178 185 194
282 327 3 24 317 304 350 322 316 319 309 308 292 277 300 312 307 307 311 308 312 335 349 302 298 292 276 288 302 293 333 349 328 275 174 146 107 81 34 44 56 117 102 58 21 90 105 147 203 163 133 312 163 121 6 31 39 281 320 312 309 318 326 295 225 195 155 143 229 211 156 165 206 201 174 180 169 152 157 160 161 166 169 171 171 177 189 200
342 338 345 10 327 274 294 290 295 310 309 311 306 288 297 301 301 313 326 324 319 329 359 308 299 307 306 301 300 296 318 346 316 282 202 177 142 109 55 12 327 41 91 74 16 74 100 180 218 126 64 355 358 10 12 10 346 327 321 302 297 297 290 270 218 191 148 128 159 143 133 166 218 194 175 176 161 144 146 147 148 156 164 168 173 182 193 205
13 334 335 348 312 283 287 295 309 315 308 314 303 287 301 305 314 331 335 325 314 316 335 324 312 318 316 311 315 293 252 227 274 257 196 148 130 128 123 169 242 11 62 79 26 44 83 222 236 94 64 335 341 3 4 5 -0 344 328 314 315 329 327 333 246 210 78 84 110 115 109 121 246 190 150 139 131 121 126 143 156 167 173 171 179 194 204 213
327 300 318 328 293 308 323 320 328 319 301 310 312 311 323 325 331 334 316 275 279 315 330 326 320 320 315 320 331 306 284 312 320 273 195 161 164 170 151 159 153 118 73 81 56 52 89 161 286 74 66 305 311 3 6 12 23 8 335 319 2 50 35 10 351 39 112 117 113 108 117 183 226 185 110 117 135 133 149 168 172 183 186 177 186 203 213 218
340 318 323 320 256 315 340 329 325 316 285 314 334 328 320 315 320 326 315 296 305 320 323 318 319 330 340 328 320 303 298 305 312 295 233 169 156 149 143 145 143 136 131 102 80 95 111 104 112 97 91 276 281 51 50 30 20 351 294 251 147 100 113 103 42 47 113 126 123 138 179 197 186 139 127 146 152 149 165 176 176 187 191 192 202 209 218 225
Height
790 788 786 784 783 781 780 779 778 777 776 775 774 773 772 771 770 770 769 768 768 766 766 765 763 763 762 761 760 758 756 755 754 754 753 748 746 746 746 746 746 747 748 748 749 751 752 753 753 753 757 760 761 762 760 759 760 770 783 791 794 796 792 786 787 786 784 786 787 787 786 788 791 787 781 779 781 782 780 778 775 772 770 772 775 777 780 783
789 787 785 783 782 780 779 778 776 775 775 773 773 772 771 770 769 769 768 767 767 766 765 764 763 762 761 760 759 757 756 753 753 752 748 745 745 745 745 745 746 746 747 747 748 749 753 754 752 753 759 763 762 761 763 761 762 775 784 790 791 788 782 775 776 777 778 782 784 785 784 784 787 786 782 787 791 785 786 784 779 778 775 773 775 777 779 782
789 787 784 782 780 779 778 776 775 774 773 772 771 770 770 769 768 768 767 766 765 765 764 763 762 761 760 760 758 757 755 754 754 749 743 743 744 743 743 744 745 745 745 746 747 749 752 752 751 754 761 766 763 763 767 765 766 773 779 790 787 777 776 772 771 773 774 777 783 785 783 784 784 782 783 789 793 789 790 788 783 784 781 777 776 776 778 780
788 786 783 781 780 778 777 775 774 773 772 771 770 769 769 768 767 767 766 765 764 764 763 762 762 760 760 758 757 757 754 757 755 743 740 742 742 742 742 743 743 744 745 745 748 749 750 750 750 753 761 769 765 764 770 767 767 771 775 784 779 771 776 773 769 770 771 774 780 783 783 786 784 781 784 787 794 796 790 784 781 783 781 778 777 776 778 780
787 785 782 780 778 777 775 774 773 771 771 769 769 768 767 767 766 766 765 765 764 763 762 762 761 759 760 757 758 755 756 767 756 737 740 741 741 742 741 742 743 743 744 746 748 748 750 749 751 755 762 769 769 770 769 762 762 770 771 770 769 769 775 772 768 769 770 774 779 783 785 785 782 783 785 786 793 794 785 779 776 776 777 777 776 776 777 779
786 783 781 779 777 776 774 773 771 770 769 768 768 767 766 766 765 765 765 764 763 763 762 761 760 759 759 756 757 753 759 769 749 735 741 739 741 741 740 742 742 743 744 746 747 748 751 750 754 761 763 767 770 771 766 757 759 771 770 764 765 765 769 771 768 769 770 774 780 782 780 779 785 787 783 784 786 782 775 774 772 772 774 775 776 777 778 778
785 782 780 778 776 775 773 771 770 768 768 767 766 766 765 765 764 764 763 763 763 762 761 761 760 759 758 756 756 755 759 757 739 737 741 738 742 740 740 742 741 744 743 744 747 749 752 754 759 761 765 769 768 765 760 757 758 770 772 765 765 763 765 768 767 769 769 772 776 775 776 780 787 786 782 783 779 774 772 771 771 771 772 774 776 778 779 779
784 782 779 777 775 773 771 770 768 767 767 766 765 765 764 764 763 763 762 763 762 761 761 760 760 758 757 757 756 758 759 748 736 739 739 738 741 739 741 741 741 743 741 744 745 747 751 755 758 757 765 766 759 759 756 759 765 769 770 765 764 764 764 766 767 770 770 770 771 772 778 781 780 779 782 783 777 772 771 771 772 773 774 775 777 778 779 780
784 781 778 776 774 772 770 768 767 766 765 764 764 763 763 762 762 762 762 762 761 761 760 759 760 758 758 756 757 761 753 738 735 737 738 739 739 739 741 740 741 741 741 743 741 744 751 754 753 751 759 756 750 755 753 763 771 764 763 764 765 767 766 768 770 772 772 771 771 776 781 780 774 776 783 781 775 773 771 774 775 775 777 777 778 778 778 779
783 780 778 775 772 771 769 767 766 765 764 764 763 762 762 761 761 761 761 761 761 760 759 760 759 757 759 756 759 763 745 733 736 736 737 739 738 739 739 739 740 739 740 741 739 742 745 746 743 739 745 747 748 752 752 761 762 753 759 762 764 767 766 769 773 772 773 771 771 777 783 780 773 778 789 781 772 773 774 778 777 777 780 778 778 778 777 778
782 779 777 774 771 770 767 766 765 764 764 762 761 761 761 760 760 760 760 760 760 759 759 759 758 758 758 756 762 759 739 733 737 735 738 738 738 738 737 738 738 738 740 739 738 737 738 737 732 735 744 746 747 750 748 748 749 750 757 765 768 768 769 770 773 774 774 773 770 772 780 781 778 782 786 778 772 773 777 781 780 780 781 779 779 778 777 777
782 779 776 773 771 768 767 766 764 763 762 761 761 760 760 760 760 760 759 759 759 759 759 758 758 758 757 758 759 748 735 735 736 736 738 737 738 738 736 738 736 737 738 737 736 733 733 731 729 741 746 743 750 757 749 739 746 754 757 771 779 773 776 775 772 773 773 773 768 770 788 792 786 785 779 773 772 774 778 782 781 781 781 780 780 779 779 777
781 778 775 772 770 768 766 764 763 762 761 760 760 759 759 759 758 759 758 759 759 758 758 758 758 756 758 758 745 736 735 737 736 736 737 736 738 737 737 737 735 735 735 735 734 730 731 729 730 739 738 741 753 751 743 738 748 760 761 772 783 785 786 776 769 772 771 771 763 771 801 804 789 782 775 771 773 776 781 783 782 782 781 781 780 780 780 778
781 778 775 772 769 767 765 763 762 761 760 759 758 758 758 757 758 758 757 758 758 758 758 758 758 757 759 752 735 732 736 736 738 736 735 736 737 737 737 735 734 733 733 733 731 729 729 727 728 733 733 739 743 739 744 750 755 765 771 776 784 794 793 774 769 773 773 771 761 773 803 804 788 782 774 770 772 777 783 782 781 782 781 781 780 781 781 778
781 778 774 771 769 767 765 763 761 760 759 758 757 757 757 757 757 757 757 758 757 758 757 757 758 757 760 751 732 731 734 735 737 734 734 735 735 736 734 733 733 731 731 732 730 728 727 726 731 739 738 733 736 747 759 764 764 768 781 791 790 792 791 777 769 771 774 772 764 776 802 802 789 782 773 770 772 775 780 781 780 781 781 781 781 780 781 778
781 778 774 771 768 766 764 762 760 759 758 757 757 757 756 757 757 757 757 756 757 758 757 758 757 758 763 750 732 730 731 732 732 732 734 733 732 733 731 732 732 731 731 730 728 727 726 729 733 738 740 740 747 759 767 773 778 773 779 794 794 790 793 786 774 767 769 773 771 778 796 800 788 780 773 770 772 774 778 780 779 780 779 779 780 778 779 778
781 778 774 771 768 766 763 761 760 758 757 757 756 756 755 756 755 756 756 756 757 756 756 758 756 759 756 740 733 733 728 727 729 730 732 731 730 730 730 733 731 730 730 728 729 729 730 735 739 740 743 749 753 760 777 788 789 782 779 788 789 786 791 790 780 770 767 775 779 779 788 791 783 777 775 770 770 774 777 779 779 779 778 778 778 778 777 777
781 778 774 771 768 765 763 761 759 758 757 756 755 755 755 755 755 755 755 756 756 756 759 758 758 765 756 737 736 733 725 726 727 728 730 729 729 730 730 732 731 731 734 735 735 734 738 740 744 753 755 756 757 765 785 786 778 782 782 785 788 784 788 788 780 771 769 777 782 784 787 786 782 778 775 771 769 774 776 777 778 777 778 778 777 778 777 777
781 778 774 771 768 765 763 761 759 757 756 755 755 754 753 753 753 754 755 756 758 758 759 756 755 759 752 737 732 728 723 725 726 727 728 727 728 729 729 731 731 735 744 749 746 740 743 749 756 766 767 762 760 762 770 764 758 768 770 775 784 785 786 781 771 763 765 778 784 784 785 784 784 781 776 772 770 773 776 775 777 778 777 777 778 778 777 777
780 777 774 771 768 765 762 760 759 757 755 755 754 753 754 755 757 758 755 754 753 748 746 746 746 745 740 732 727 726 726 725 727 726 726 726 727 730 731 732 736 742 748 755 753 741 742 760 769 768 764 757 752 750 751 748 747 756 764 770 776 782 783 772 765 760 759 776 785 779 781 783 783 780 774 773 773 775 777 778 778 778 778 778 778 777 776 776
780 777 774 771 767 765 762 760 758 757 756 755 754 754 755 756 760 761 755 750 742 737 739 738 737 737 732 727 724 725 730 730 727 724 725 724 725 735 739 737 747 755 751 750 752 742 746 767 767 754 750 746 743 742 742 742 741 751 763 771 776 779 775 763 760 760 756 771 781 776 781 784 780 779 774 772 776 777 775 777 777 776 777 776 776 777 775 773
780 776 773 771 767 764 762 759 758 756 756 755 754 754 752 749 752 752 751 753 741 730 735 733 733 734 725 723 722 723 734 739 734 726 723 723 727 740 743 741 754 759 750 750 756 758 763 768 754 740 739 739 740 739 737 736 736 746 759 771 778 773 769 763 759 759 759 768 779 778 782 785 779 777 775 772 773 772 769 770 771 772 775 776 775 775 774 774
780 775 773 770 766 764 761 759 758 756 755 755 754 754 749 745 746 746 749 756 746 729 729 732 733 733 726 724 719 722 736 740 739 731 719 724 732 736 742 748 755 756 754 757 763 772 775 760 740 733 734 738 741 735 733 737 737 743 755 769 775 766 768 772 764 762 762 764 773 778 783 785 781 779 777 772 769 768 767 766 766 768 770 771 770 771 772 773
778 775 773 768 765 763 759 758 756 755 755 753 753 750 746 744 745 746 748 754 751 732 722 722 724 726 723 719 715 723 734 731 732 729 717 724 733 734 740 746 753 758 757 755 758 768 767 745 728 731 733 735 738 733 732 742 745 744 748 759 766 760 761 764 760 762 765 766 768 776 792 794 786 788 785 775 772 771 769 769 769 768 767 767 768 768 769 769
777 775 771 767 765 761 758 757 755 755 754 752 750 746 745 744 741 745 750 758 759 738 721 717 719 718 711 711 714 717 725 725 723 721 713 718 728 735 740 740 749 761 756 752 757 763 755 733 725 735 735 731 735 736 734 741 749 750 745 744 749 750 753 755 757 765 778 785 772 771 802 810 790 789 789 780 779 777 772 772 773 771 768 769 770 770 768 767
776 774 770 767 764 759 757 756 754 755 754 750 747 745 745 744 742 744 751 769 769 743 727 723 721 717 708 712 713 712 731 732 714 710 711 714 717 726 742 742 742 752 749 747 753 754 743 727 724 734 733 731 736 739 733 735 751 758 741 731 736 741 749 755 758 767 781 787 768 759 791 811 797 790 788 782 783 781 775 774 773 771 770 769 769 769 768 767
775 772 769 767 762 760 758 755 755 756 753 749 746 746 744 742 743 742 756 788 777 737 728 727 719 714 708 709 708 720 746 734 712 711 709 713 714 717 740 747 744 746 738 744 757 748 734 730 730 730 731 735 740 741 731 730 751 755 731 724 734 738 746 753 757 763 767 768 767 762 774 799 803 791 784 782 785 785 778 776 774 770 770 768 766 766 765 765
773 770 768 765 762 761 759 756 756 753 751 748 744 746 743 740 742 742 769 801 769 723 723 723 711 706 704 706 707 721 731 721 726 725 703 708 716 719 741 745 744 746 735 748 768 746 729 736 735 730 735 740 738 733 725 727 744 740 722 722 728 729 736 744 752 760 759 765 782 777 769 794 807 789 781 784 787 789 782 776 774 770 768 766 765 764 762 761
771 769 766 762 760 759 757 756 754 751 749 746 744 745 741 740 742 750 782 791 746 715 719 716 711 710 709 713 715 718 717 717 730 722 703 711 714 717 737 737 737 746 737 745 759 744 730 729 725 727 736 737 730 724 719 725 734 724 716 721 724 727 731 735 747 756 760 772 786 780 770 792 808 792 787 793 790 785 778 772 771 768 766 765 763 762 761 760
768 766 764 760 758 757 756 754 749 748 748 745 746 743 740 744 752 776 800 777 735 723 719 715 719 718 718 726 727 722 721 722 720 715 714 718 715 717 725 723 729 742 742 742 746 739 727 717 715 722 726 723 719 717 715 718 721 716 719 727 730 735 735 739 746 750 767 779 772 769 767 779 803 799 787 784 774 767 769 771 770 766 765 765 761 760 760 760
764 763 762 758 755 756 756 751 746 746 747 746 745 742 745 754 768 795 794 750 730 731 722 722 724 718 722 732 733 727 726 726 720 723 729 726 727 731 731 733 738 747 753 751 746 738 728 724 722 715 710 710 714 717 714 712 714 718 728 737 746 753 750 755 757 757 782 786 760 757 761 767 793 794 775 766 756 753 761 766 766 766 766 764 761 759 758 758
761 759 757 755 752 752 751 748 745 746 746 745 745 744 755 774 785 792 772 738 737 739 727 728 726 720 724 728 731 729 728 730 724 726 733 734 739 740 740 746 747 758 769 762 753 746 736 730 723 713 705 704 717 728 724 717 718 725 735 745 762 775 776 782 781 777 787 777 753 754 760 767 780 771 757 757 754 752 754 755 758 761 762 762 759 759 757 757
758 754 752 750 748 746 744 744 744 746 746 745 747 749 765 791 792 775 759 749 745 733 722 725 721 720 726 730 734 728 728 733 727 727 730 731 740 741 739 738 736 752 766 759 757 757 749 734 720 721 715 703 713 732 739 735 730 733 740 750 768 783 793 800 794 787 786 770 753 751 757 773 778 759 749 750 749 748 748 749 753 754 756 758 757 757 757 757
753 750 747 744 742 740 739 742 743 744 745 745 751 760 778 795 781 758 755 752 739 726 722 723 722 724 727 731 731 724 730 736 725 728 733 734 744 747 742 737 732 740 751 756 759 759 765 756 729 724 722 709 710 720 726 729 731 734 732 741 760 768 780 792 787 787 785 770 761 760 767 783 782 762 748 743 743 745 747 749 751 752 753 755 756 757 757 757
749 746 744 739 737 736 735 739 741 743 746 746 756 772 785 787 770 757 754 743 733 729 725 721 723 732 734 730 725 718 726 735 727 729 737 738 745 745 740 738 733 734 746 761 760 751 763 759 724 710 708 706 712 711 706 720 737 736 727 740 754 749 755 769 771 770 769 771 778 779 781 780 769 756 746 742 745 747 748 751 753 755 755 755 757 758 757 757
745 741 739 735 734 734 734 736 739 742 744 749 765 778 778 769 758 753 745 735 734 736 735 731 727 736 742 735 729 721 718 726 729 733 738 737 738 737 733 730 725 728 739 753 756 750 760 751 717 707 708 702 708 708 702 718 736 736 736 745 741 729 737 757 767 761 761 780 792 787 786 779 767 763 754 748 752 753 753 755 755 757 756 756 758 758 756 757
742 739 736 732 730 732 734 735 738 741 743 753 769 773 765 754 745 742 737 733 734 733 742 748 735 733 743 740 735 728 722 726 730 734 739 740 736 730 728 722 716 719 724 734 744 742 750 750 720 710 719 707 697 702 702 703 714 732 744 738 726 725 733 747 766 772 773 789 795 788 790 787 782 780 766 757 761 760 758 757 757 757 757 757 758 757 756 755
743 740 736 729 728 730 732 735 737 741 746 757 768 765 757 749 739 735 734 732 733 733 743 753 738 727 735 740 735 726 726 734 735 734 738 740 733 721 720 721 713 710 710 719 734 731 737 753 731 710 719 712 696 706 718 708 702 716 725 719 726 747 753 751 766 779 783 793 799 797 793 787 785 782 770 766 766 763 760 758 758 759 757 757 757 756 756 755
746 744 737 728 727 730 732 736 737 742 751 763 771 763 752 746 736 730 731 731 733 737 743 743 732 725 727 731 731 725 726 733 735 735 736 739 733 715 710 714 710 707 705 711 728 727 727 749 745 718 711 712 708 719 734 728 712 710 716 718 727 743 753 755 760 768 777 789 802 807 801 789 778 769 765 765 761 758 760 759 758 757 756 756 756 756 756 756
748 748 740 730 730 732 732 736 740 748 757 762 763 758 748 743 735 726 725 727 729 732 736 733 727 727 725 722 724 724 724 727 728 730 731 730 729 717 705 706 706 704 703 707 718 723 724 741 750 730 714 720 729 728 729 730 726 725 732 737 737 737 743 750 754 758 766 781 797 809 808 790 766 755 758 759 756 754 755 756 756 755 754 755 755 755 756 756
751 751 744 732 732 732 733 741 748 753 758 758 755 751 745 740 734 725 720 721 723 722 722 723 722 723 722 722 723 719 720 725 723 724 726 722 725 720 703 697 699 700 706 714 718 721 727 736 745 741 733 736 735 720 713 717 718 723 733 739 739 740 746 759 768 763 758 769 782 793 802 788 757 747 750 751 752 751 750 752 755 754 754 756 755 755 755 755
755 754 744 736 736 732 734 748 752 751 755 754 748 744 740 735 731 727 720 718 721 716 712 713 715 716 716 717 718 715 716 723 722 721 720 714 715 712 695 686 690 693 702 716 715 709 713 726 739 745 741 735 726 712 709 711 708 713 723 727 729 735 744 761 774 768 760 766 770 777 792 782 752 742 745 745 746 747 748 750 753 755 755 755 756 755 754 755
759 754 740 735 737 732 739 753 753 751 752 747 740 737 734 733 730 726 721 719 719 715 713 712 709 711 712 710 712 713 713 717 717 713 711 708 703 696 686 682 687 692 698 709 711 704 709 727 741 746 740 728 717 710 707 707 710 721 725 722 725 732 736 743 753 756 760 767 769 779 794 781 751 740 743 743 743 746 749 749 752 757 757 755 756 755 754 754
763 757 742 735 735 734 745 755 754 754 751 743 740 737 731 728 727 725 723 720 716 715 716 713 706 707 708 705 707 709 709 715 714 704 703 707 699 687 683 682 684 691 696 702 705 705 718 735 743 752 758 750 741 737 730 721 722 730 729 722 723 728 731 737 743 748 759 765 764 776 790 778 752 742 744 745 746 750 752 751 752 755 756 755 755 754 753 753
762 756 745 736 733 735 743 746 746 751 749 745 745 739 732 726 719 716 718 715 710 709 713 710 703 702 703 704 707 704 702 709 711 702 699 703 698 688 686 684 681 686 690 691 691 697 718 734 738 753 771 774 771 766 755 742 734 732 730 725 725 728 732 739 746 754 763 764 760 767 776 770 754 747 749 749 750 754 755 754 753 752 753 754 754 753 753 753
763 758 750 743 736 737 741 737 739 748 748 749 749 739 733 730 718 708 709 710 705 702 705 704 699 701 704 706 712 710 702 702 704 701 700 702 700 693 688 685 685 687 689 687 687 696 717 730 731 743 756 759 759 752 741 739 741 740 735 730 729 730 730 738 750 758 759 759 761 761 762 764 761 755 755 753 752 755 755 755 755 754 754 754 753 753 753 753
767 762 758 757 752 746 745 741 743 748 746 748 749 738 732 732 725 714 707 706 702 699 702 701 698 705 710 710 715 716 708 704 702 702 703 702 699 695 689 686 689 690 689 689 690 699 720 732 731 734 739 739 740 737 732 734 740 741 739 736 734 732 733 740 749 752 751 758 766 760 754 761 761 755 756 755 751 753 755 754 755 754 753 753 753 753 754 753
765 761 757 761 762 758 755 750 748 748 744 743 743 737 733 732 730 724 714 706 701 700 706 709 704 705 707 708 714 717 713 713 709 704 704 702 700 700 697 693 692 690 690 694 695 700 721 734 729 728 734 733 731 731 730 732 736 737 737 737 733 732 736 741 743 742 743 751 757 755 754 757 755 752 753 750 747 750 752 751 750 750 750 752 753 753 753 752
764 764 759 758 761 761 759 753 748 748 745 743 741 737 735 733 730 725 718 713 711 704 708 717 713 705 704 703 709 716 716 719 718 708 703 703 701 703 707 706 699 691 692 700 701 702 718 732 728 727 734 734 730 729 728 730 735 736 734 734 733 732 734 736 737 735 736 743 746 749 755 755 749 748 747 744 744 745 746 747 748 749 750 751 752 752 751 750
770 771 767 764 763 759 755 751 749 750 746 743 743 738 732 732 731 725 719 721 725 715 709 717 716 707 706 705 707 712 709 708 712 706 699 702 703 702 707 710 704 697 697 704 707 705 717 731 728 726 738 740 732 729 730 733 739 739 737 734 732 732 733 734 735 732 736 749 751 750 758 759 748 743 742 742 744 744 746 749 748 747 748 748 749 750 748 747
775 773 771 772 767 758 755 753 750 753 749 744 743 738 733 733 729 726 721 715 718 720 715 717 716 709 707 706 706 706 698 693 697 693 686 690 694 695 699 701 701 703 705 708 710 709 717 730 728 729 746 749 735 733 738 736 738 742 741 737 734 735 738 739 737 734 739 753 757 757 763 760 747 742 744 744 743 744 746 747 746 746 746 745 747 747 745 744
776 773 769 772 769 760 759 758 754 755 751 745 743 739 736 732 724 724 726 715 708 710 710 710 712 711 713 713 707 698 690 686 685 681 677 677 678 681 687 690 692 699 706 711 715 716 719 728 731 737 751 751 739 738 740 741 752 757 746 738 737 738 740 741 739 736 736 744 754 759 757 750 743 744 748 747 745 745 744 743 743 744 743 743 743 742 742 741